Погода в Майне

Россия / Республика Хакасия     53°00′01″N   91°28′51″E
темп.,
°C
ветер,
м/с
пор.,
м/с
влажн.,
%
обл.,
%
осадки,
мм/ч
давл.,
гПа
погр.,
м
14 апреля, ср
ср1401:00−2зюз3797100 13.8 1031661
04:00−5юз3590100 0.9 103299
07:00−2юз3886100 1.1 1032522
10:00−1юз4985100 0.6 10331019
13:00+2зюз5108194 1.6 10301411
16:00+2зюз51280100 0.3 10281481
19:00+1юз41487100 2.3 10251295
22:00+1юз41191100 3.7 1024969
15 апреля, чт
чт1501:00+1зюз51181100 5.0 1024769
04:00+1зюз41188100 1.8 1025717
07:00+1зюз3796100 4.3 1027454
10:00+2юз2597100 1.4 1027384
13:00+4юз2494100 2.0 1026443
16:00+4ююз249592 0.3 1025389
19:00+3ююз34100100 0.3 1024131
22:00+2ююз339499 0.0 102446
16 апреля, пт
пт1601:00+2ююз229477 0.0 102332
04:00+2ююз339671 0.1 102260
07:00+2ю239884 0.1 102259
10:00+6ююз239238 0.1 1020256
13:00+7ююз248643 0.2 1018589
16:00+9ю358311 0.1 1016520
19:00+6ю349742 0.1 101577
22:00+3ю349638 0.0 101562
17 апреля, сб
сб1701:00+3ю349516 0.0 101358
04:00+2ю32890 0.0 101239
07:00+3ю3386100 0.0 101047
10:00+9ю2378100 0.0 1007164
13:00+12ююз1564100 0.2 1004941
16:00+11юз41067100 0.9 1003793
19:00+7ююз3487100 2.5 1006162
22:00+1с3399100 2.8 1010299
18 апреля, вс
вс1801:00−3с3397100 4.9 1013321
04:00−4св119399 3.1 1014227
07:00−5с1194100 4.2 1015284
10:00−2с1192100 1.3 1015348
13:00+1с1195100 3.3 1014323
16:00+2с1199100 1.4 1014156
19:00+1зсз2499100 2.7 1016343
22:00−2зсз2394100 0.1 102089